SCP
0 0 0 0 0 0 0 0 0 0 0 0 0 0 0 0 0 0 0 0 0 0 0 0 0 0 0 0 0 0 0 0 0 0 0 0 0 0 0 0 0 0 0 0
0 0 0 0 0 0 0 0 0 0 0 0 0 0 0 0 0 0 0 0 0 0 0 0 0 0 0 0 0 0 0 0 0 0 0 0 0 0 0 0 0 0 0 0
0 0 0 0 0 0 0 0 0 0 0 0 0 0 0 0 0 0 0 0 0 0 0 0 0 0 0 0 0 0 0 0 0 0 0 0 0 0 0 0 0 0 0 0
0 0 0 0 0 0 0 0 0 0 0 0 0 0 0 0 0 0 0 0 0 0 0 0 0 0 0 0 0 0 0 0 0 0 0 0 0 0 0 0 0 0 0 0
0 0 0 0 0 0 0 0 0 0 0 0 0 0 0 0 0 0 0 0 0 0 0 0 0 0 0 0 0 0 0 0 0 0 0 0 0 0 0 0 0 0 0 0
0 0 0 0 0 0 0 0 0 0 0 0 0 0 0 0 0 0 0 0 0 0 0 0 0 0 0 0 0 0 0 0 0 0 0 0 0 0 0 0 0 0 0 0
0 0 0 0 0 0 0 0 0 0 0 0 0 0 0 0 0 0 0 0 0 0 0 0 0 0 0 0 0 0 0 0 0 0 0 0 0 0 0 0 0 0 0 0
0 0 0 0 0 0 0 0 0 0 0 0 0 0 0 0 0 0 0 0 0 0 0 0 0 0 0 0 0 0 0 0 0 0 0 0 0 0 0 0 0 0 0 0
0 0 0 0 0 0 0 0 0 0 0 0 0 0 0 0 0 0 0 0 0 0 0 0 0 0 0 0 0 0 0 0 0 0 0 0 0 0 0 0 0 0 0 0
0 0 0 0 0 0 0 0 0 0 0 0 0 0 0 0 0 0 0 0 0 0 0 0 0 0 0 0 0 0 0 0 0 0 0 0 0 0 0 0 0 0 0 0
0 0 0 0 0 0 0 0 0 0 0 0 0 0 0 0 0 0 0 0 0 0 0 0 0 0 0 0 0 0 0 0 0 0 0 0 0 0 0 0 0 0 0 0
0 0 0 0 0 0 0 0 0 0 0 0 0 0 0 0 0 0 0 0 0 0 0 0 0 0 0 0 0 0 0 0 0 0 0 0 0 0 0 0 0 0 0 0
0 0 0 0 0 0 0 0 0 0 0 0 0 0 0 0 0 0 0 0 0 0 0 0 0 0 0 0 0 0 0 0 0 0 0 0 0 0 0 0 0 0 0 0
0 0 0 -0 0 0 0 -0 0 0 0 0 0 0 0 0 0 0 0 0 0 0 0 0 0 0 0 0 0 0 0 0 0 0 0 0 0 0 0 0 0 0 0 0
0 0 0 0 0 0 0 0 0 0 0 0 0 0 0 0 0 0 0 0 0 0 0 0 0 0 0 0 0 0 0 0 0 0 0 0 0 0 0 0 0 0 0 0
0 -0 0 0 0 0 -0 -0 0 0 0 0 0 0 0 0 0 0 0 0 0 0 0 0 0 0 0 0 0 0 0 0 0 0 0 0 0 0 0 0 0 0 0 0
0 0 0 0 0 0 -0 0 0 0 0 -0 0 0 0 0 0 0 0 0 0 0 0 0 0 0 0 0 0 0 0 0 0 0 0 0 0 0 0 0 0 0 0 0
0 0 0 0 0 0 0 0 0 0 0 0 0 0 -0 -0 0 0 0 0 0 0 0 0 0 0 0 0 0 0 0 0 0 0 0 0 0 0 0 0 0 0 0 0
0 0 0 0 0 0 0 0 0 0 0 0 0 0 0 0 0 0 0 0 0 0 0 0 0 0 0 0 0 0 0 0 0 0 0 0 0 0 0 0 0 0 0 0
0 0 0 0 0 -0 0 0 0 0 0 0 -0 -0 0 0 0 0 0 0 0 0 0 0 0 0 0 0 0 0 0 0 0 0 0 0 0 0 0 0 0 0 0 0
0 0 0 0 0 0 0 0 0 0 0 0 0 0 0 0 0 0 0 0 0 0 0 0 0 0 0 0 0 0 0 0 0 0 0 0 0 0 0 0 0 0 0 0
0 0 0 0 0 0 0 0 0 0 0 0 0 0 0 0 0 0 0 0 0 0 0 0 0 0 0 0 0 0 0 0 0 0 0 0 0 0 0 0 0 0 0 0
0 0 0 0 0 0 0 0 0 0 0 0 0 0 0 0 0 0 0 0 0 0 0 0 0 0 0 0 0 0 0 0 0 0 0 0 0 0 0 0 0 0 0 0
0 0 0 0 0 0 -0 0 0 0 0 0 0 0 0 0 0 0 0 0 0 0 0 0 0 0 0 0 0 0 0 0 0 0 0 0 0 0 0 0 0 0 0 0
0 0 0 0 0 0 0 0 0 0 0 0 0 0 0 0 0 0 0 0 0 0 0 0 0 0 0 0 0 0 0 0 0 0 0 0 0 0 0 0 0 0 0 0
0 0 0 0 0 0 0 0 0 0 0 0 0 0 0 0 0 0 0 0 0 0 0 0 0 0 0 0 0 0 0 0 0 0 0 0 0 0 0 0 0 0 0 0
Wind_Speed_500mb
28 17 26 30 30 17 4 13 26 9 3 11 32 28 36 38 27 24 18 23 33 45 53 49 50 51 54 53 56 55 55 55 54 55 55 53 51 44 45 44 42 41 38 35
11 32 28 16 23 25 19 10 12 6 2 9 14 23 31 26 28 43 48 40 37 37 40 54 47 48 56 59 59 59 59 57 60 61 58 56 52 50 48 45 40 36 35 35
32 7 27 25 20 28 31 34 18 6 2 3 13 27 28 21 20 28 34 41 42 50 47 38 44 46 45 54 63 64 62 59 60 61 60 57 54 53 50 49 42 38 37 36
29 24 19 27 36 29 34 18 19 8 3 15 4 14 10 8 16 20 34 36 41 38 47 58 51 46 48 48 52 59 61 60 59 59 62 63 58 57 51 45 37 29 26 30
13 20 21 20 17 28 21 18 24 25 23 19 30 13 11 3 16 21 4 2 7 19 34 39 48 53 52 53 51 51 57 59 59 58 59 60 60 57 50 50 44 39 34 32
32 4 21 30 12 30 20 18 11 6 9 17 32 22 15 15 9 5 1 12 12 8 14 17 23 31 44 51 54 56 49 50 55 54 56 58 58 55 58 57 51 47 40 37
26 26 8 9 24 19 25 29 9 11 12 18 3 20 27 5 9 14 13 8 12 6 3 6 9 13 20 28 39 48 54 52 50 52 52 54 51 50 53 51 50 50 47 46
28 17 34 22 22 16 29 35 11 17 13 13 10 18 4 3 5 3 7 11 15 15 11 9 9 10 11 17 25 35 47 53 51 50 49 49 48 49 49 49 51 51 46 43
21 28 13 25 16 30 28 25 7 7 3 4 12 8 8 7 8 9 11 14 18 19 19 21 21 21 22 22 23 26 32 38 40 42 41 40 39 39 42 44 41 41 37 34
2 11 18 34 25 35 26 28 19 9 13 15 12 9 10 17 11 10 12 15 17 19 23 29 34 35 35 36 35 35 34 33 33 31 31 32 32 30 29 29 27 25 23 22
11 4 7 16 30 39 23 16 17 13 9 12 14 8 3 14 11 16 15 16 19 19 24 31 38 41 42 41 41 41 40 39 36 33 31 28 28 26 22 20 18 17 17 17
17 5 10 29 4 8 42 36 32 17 18 11 4 6 5 12 13 19 18 20 21 23 25 30 34 36 36 38 37 37 35 32 31 28 25 22 21 20 17 15 13 11 11 12
13 8 9 7 8 7 10 18 21 15 4 25 18 8 11 14 16 16 24 22 21 21 24 26 30 31 32 32 31 29 29 27 26 23 20 18 16 15 13 11 10 9 9 10
6 8 10 19 7 4 7 20 25 20 9 18 27 15 20 20 19 18 19 19 21 21 22 23 26 28 29 29 29 27 25 24 22 20 18 16 14 12 10 7 5 5 6 7
4 4 8 4 3 1 3 10 22 34 37 13 6 23 32 28 23 23 20 19 18 18 20 21 22 23 24 23 24 23 23 22 20 16 14 13 11 8 5 3 2 3 5 8
5 12 7 3 5 2 7 15 18 12 2 20 8 6 9 21 20 25 25 22 20 21 22 22 20 19 18 18 18 18 16 14 13 10 8 7 5 2 0 2 4 6 7 9
7 7 5 6 7 2 10 18 28 18 14 17 12 15 25 23 18 25 22 26 26 27 26 25 24 20 17 14 11 9 8 7 5 3 2 2 2 4 6 8 9 10 11 13
7 4 3 2 2 7 2 9 10 24 17 20 4 12 36 21 28 37 42 44 40 39 35 29 25 23 20 16 14 11 10 8 7 7 7 7 7 7 8 10 12 13 14 15
2 4 5 4 7 10 9 9 13 14 10 25 23 17 16 18 19 13 32 36 35 34 32 30 26 22 19 17 13 10 8 6 6 7 7 9 11 12 13 13 13 13 14 14
5 7 2 5 7 13 8 2 8 9 9 9 21 24 23 24 13 8 41 38 36 32 30 27 24 20 18 15 13 11 9 8 8 9 10 11 12 12 13 14 14 13 12 10
7 6 17 10 9 14 15 4 2 11 4 9 11 19 35 14 4 15 38 35 32 32 31 29 25 21 18 15 12 10 9 9 9 10 11 12 12 12 12 11 9 8 8 7
13 15 9 8 11 22 12 12 14 1 3 7 12 19 29 23 19 21 28 32 33 32 31 28 25 22 20 18 15 13 11 10 10 9 9 9 9 9 9 8 7 6 4 3
8 9 6 15 10 3 16 11 19 5 9 12 13 20 25 29 24 26 29 31 32 32 32 32 29 24 20 17 14 12 11 11 10 10 10 10 9 9 9 8 7 6 5 5
8 9 6 1 12 22 42 40 37 20 17 12 17 23 27 27 26 29 31 36 38 39 37 33 29 25 22 19 17 15 13 12 11 11 11 11 10 9 8 7 6 5 6 6
1 16 10 11 15 23 38 36 39 37 34 29 26 25 27 33 35 36 40 41 40 39 37 34 31 28 25 22 20 17 16 15 15 15 14 14 12 10 9 7 7 7 7 9
20 15 12 14 21 20 16 20 39 41 39 31 28 29 31 34 38 39 43 44 43 42 40 37 34 31 27 23 21 19 19 20 21 20 19 16 14 11 7 6 5 4 6 9
Wind_Direction_500mb
196 212 215 213 216 235 267 216 242 190 137 218 243 248 256 252 248 254 257 250 245 241 238 238 241 237 232 228 227 224 226 222 220 220 221 223 225 227 232 232 233 235 239 243
179 229 233 232 213 221 224 213 231 269 122 233 263 256 264 257 254 244 247 248 254 251 247 243 241 239 236 234 232 229 227 227 224 225 227 229 230 229 234 236 239 242 244 246
216 173 216 206 207 216 229 231 221 296 293 256 296 266 244 251 245 245 244 244 245 246 249 245 242 240 239 236 236 234 231 230 229 228 230 230 233 237 237 238 238 239 241 245
229 201 174 212 225 210 226 214 216 188 308 255 314 278 244 265 273 248 244 239 245 250 253 250 249 246 243 241 238 236 234 234 233 229 232 235 236 239 239 238 235 231 232 241
192 181 187 206 215 207 237 171 204 225 246 282 238 262 233 298 267 260 271 241 270 263 258 257 254 249 246 238 235 234 234 233 233 232 233 237 237 239 241 239 234 230 225 232
227 193 208 220 185 197 150 135 104 121 216 251 242 224 230 228 244 292 301 353 348 294 246 248 240 239 239 239 235 232 231 231 231 233 232 234 238 235 238 241 240 238 233 232
216 216 167 176 190 185 183 171 156 194 199 243 60 214 250 214 302 294 306 14 40 54 194 227 221 229 232 229 224 221 220 223 223 222 222 226 230 232 241 244 246 243 238 239
209 207 208 180 204 179 199 192 189 203 208 224 148 229 176 324 63 55 69 78 68 69 82 100 125 150 177 189 193 201 205 208 210 213 214 218 221 228 233 237 241 240 239 241
214 224 190 187 184 174 193 222 227 108 61 210 194 243 238 147 107 99 90 82 67 68 81 92 103 111 119 132 149 166 180 187 189 197 203 207 209 215 224 230 230 232 233 236
273 213 196 203 211 209 201 186 199 217 204 230 201 237 214 184 162 134 109 99 90 85 86 96 103 106 109 112 117 129 138 150 158 168 178 187 190 195 204 209 211 211 214 221
171 237 182 181 205 205 204 198 225 220 224 240 238 202 114 169 162 147 135 120 111 98 94 97 103 107 110 113 117 119 123 126 130 134 140 148 154 159 167 179 191 204 217 228
201 179 256 214 80 258 227 211 198 207 202 233 346 183 133 138 134 140 140 134 122 113 110 110 110 111 114 114 115 116 118 122 124 127 132 142 148 152 160 170 180 194 212 226
162 198 245 261 221 176 206 222 208 229 337 211 211 181 157 144 141 146 145 139 127 121 123 121 121 117 115 115 116 118 120 122 124 127 132 138 142 144 154 164 176 190 207 222
143 199 232 243 283 60 219 217 211 232 234 214 217 209 184 180 174 169 154 147 142 138 137 131 126 124 122 121 120 120 119 119 120 125 129 132 133 136 141 150 172 204 229 245
25 316 201 175 88 0 263 326 228 214 226 242 232 219 190 185 182 179 164 158 154 151 149 145 139 131 126 124 121 119 120 120 118 121 123 125 121 123 129 141 210 267 279 280
146 188 201 259 154 38 278 263 274 273 69 234 175 178 319 148 141 165 180 181 186 182 176 168 160 151 143 136 131 127 123 120 116 117 111 100 99 90 45 275 271 272 274 278
161 167 205 172 347 323 269 220 228 232 188 164 201 214 169 188 201 190 197 206 203 196 193 186 180 174 166 159 155 153 151 154 162 182 198 204 236 261 269 270 271 273 273 274
135 104 25 73 126 235 185 177 223 239 251 218 202 155 194 198 191 194 202 209 203 201 199 198 191 183 180 182 185 188 191 198 211 217 220 228 245 261 273 280 282 281 280 280
7 134 116 185 215 314 259 191 179 194 252 218 212 193 163 157 161 193 192 194 194 190 189 189 184 180 178 178 181 186 193 204 227 246 260 266 265 262 258 254 256 259 262 265
158 19 297 158 211 221 271 22 174 168 265 164 185 185 168 156 204 180 190 189 187 185 185 186 183 183 184 184 184 190 205 225 248 265 271 273 273 270 268 265 261 256 250 247
167 205 222 214 238 276 251 251 233 177 248 156 179 175 167 190 209 170 181 185 187 186 188 187 188 191 193 193 197 207 225 240 249 247 251 255 258 261 263 264 262 259 257 255
180 178 194 182 223 255 162 123 202 277 118 149 164 177 184 185 170 162 173 183 188 193 195 195 199 200 202 204 208 213 220 232 236 242 246 246 241 236 231 231 233 231 240 263
224 205 187 206 215 291 222 237 216 185 197 187 179 169 180 183 185 183 186 191 195 201 204 206 208 211 216 222 227 233 247 250 253 249 243 235 227 218 211 207 205 204 208 217
227 173 232 230 213 235 249 250 248 236 209 205 194 196 200 210 214 210 208 207 209 211 213 219 224 227 230 234 239 242 247 249 244 235 222 212 204 198 198 204 221 239 254 260
200 162 201 251 273 274 267 255 238 233 221 219 218 216 214 221 225 228 228 226 226 225 224 226 230 233 232 232 232 231 230 225 218 210 204 199 199 204 214 228 249 265 275 284
185 206 205 245 212 226 251 247 239 239 243 235 233 240 238 232 231 232 232 232 232 232 231 231 232 232 231 231 229 223 215 206 201 201 202 204 209 215 224 247 267 281 315 326
Wind_Speed_850mb
28 17 26 30 30 17 4 13 26 9 3 11 32 28 36 38 27 24 18 23 33 45 53 49 50 51 54 53 56 55 55 55 54 55 55 53 51 44 45 44 42 41 38 35
11 32 28 16 23 25 19 10 12 6 2 9 14 23 31 26 28 43 48 40 37 37 40 54 47 48 56 59 59 59 59 57 60 61 58 56 52 50 48 45 40 36 35 35
32 7 27 25 20 28 31 34 18 6 2 3 13 27 28 21 20 28 34 41 42 50 47 38 44 46 45 54 63 64 62 59 60 61 60 57 54 53 50 49 42 38 37 36
29 24 19 27 36 29 34 18 19 8 3 15 4 14 10 8 16 20 34 36 41 38 47 58 51 46 48 48 52 59 61 60 59 59 62 63 58 57 51 45 37 29 26 30
13 20 21 20 17 28 21 18 24 25 23 19 30 13 11 3 16 21 4 2 7 19 34 39 48 53 52 53 51 51 57 59 59 58 59 60 60 57 50 50 44 39 34 32
32 4 21 30 12 30 20 18 11 6 9 17 32 22 15 15 9 5 1 12 12 8 14 17 23 31 44 51 54 56 49 50 55 54 56 58 58 55 58 57 51 47 40 37
26 26 8 9 24 19 25 29 9 11 12 18 3 20 27 5 9 14 13 8 12 6 3 6 9 13 20 28 39 48 54 52 50 52 52 54 51 50 53 51 50 50 47 46
28 17 34 22 22 16 29 35 11 17 13 13 10 18 4 3 5 3 7 11 15 15 11 9 9 10 11 17 25 35 47 53 51 50 49 49 48 49 49 49 51 51 46 43
21 28 13 25 16 30 28 25 7 7 3 4 12 8 8 7 8 9 11 14 18 19 19 21 21 21 22 22 23 26 32 38 40 42 41 40 39 39 42 44 41 41 37 34
2 11 18 34 25 35 26 28 19 9 13 15 12 9 10 17 11 10 12 15 17 19 23 29 34 35 35 36 35 35 34 33 33 31 31 32 32 30 29 29 27 25 23 22
11 4 7 16 30 39 23 16 17 13 9 12 14 8 3 14 11 16 15 16 19 19 24 31 38 41 42 41 41 41 40 39 36 33 31 28 28 26 22 20 18 17 17 17
17 5 10 29 4 8 42 36 32 17 18 11 4 6 5 12 13 19 18 20 21 23 25 30 34 36 36 38 37 37 35 32 31 28 25 22 21 20 17 15 13 11 11 12
13 8 9 7 8 7 10 18 21 15 4 25 18 8 11 14 16 16 24 22 21 21 24 26 30 31 32 32 31 29 29 27 26 23 20 18 16 15 13 11 10 9 9 10
6 8 10 19 7 4 7 20 25 20 9 18 27 15 20 20 19 18 19 19 21 21 22 23 26 28 29 29 29 27 25 24 22 20 18 16 14 12 10 7 5 5 6 7
4 4 8 4 3 1 3 10 22 34 37 13 6 23 32 28 23 23 20 19 18 18 20 21 22 23 24 23 24 23 23 22 20 16 14 13 11 8 5 3 2 3 5 8
5 12 7 3 5 2 7 15 18 12 2 20 8 6 9 21 20 25 25 22 20 21 22 22 20 19 18 18 18 18 16 14 13 10 8 7 5 2 0 2 4 6 7 9
7 7 5 6 7 2 10 18 28 18 14 17 12 15 25 23 18 25 22 26 26 27 26 25 24 20 17 14 11 9 8 7 5 3 2 2 2 4 6 8 9 10 11 13
7 4 3 2 2 7 2 9 10 24 17 20 4 12 36 21 28 37 42 44 40 39 35 29 25 23 20 16 14 11 10 8 7 7 7 7 7 7 8 10 12 13 14 15
2 4 5 4 7 10 9 9 13 14 10 25 23 17 16 18 19 13 32 36 35 34 32 30 26 22 19 17 13 10 8 6 6 7 7 9 11 12 13 13 13 13 14 14
5 7 2 5 7 13 8 2 8 9 9 9 21 24 23 24 13 8 41 38 36 32 30 27 24 20 18 15 13 11 9 8 8 9 10 11 12 12 13 14 14 13 12 10
7 6 17 10 9 14 15 4 2 11 4 9 11 19 35 14 4 15 38 35 32 32 31 29 25 21 18 15 12 10 9 9 9 10 11 12 12 12 12 11 9 8 8 7
13 15 9 8 11 22 12 12 14 1 3 7 12 19 29 23 19 21 28 32 33 32 31 28 25 22 20 18 15 13 11 10 10 9 9 9 9 9 9 8 7 6 4 3
8 9 6 15 10 3 16 11 19 5 9 12 13 20 25 29 24 26 29 31 32 32 32 32 29 24 20 17 14 12 11 11 10 10 10 10 9 9 9 8 7 6 5 5
8 9 6 1 12 22 42 40 37 20 17 12 17 23 27 27 26 29 31 36 38 39 37 33 29 25 22 19 17 15 13 12 11 11 11 11 10 9 8 7 6 5 6 6
1 16 10 11 15 23 38 36 39 37 34 29 26 25 27 33 35 36 40 41 40 39 37 34 31 28 25 22 20 17 16 15 15 15 14 14 12 10 9 7 7 7 7 9
20 15 12 14 21 20 16 20 39 41 39 31 28 29 31 34 38 39 43 44 43 42 40 37 34 31 27 23 21 19 19 20 21 20 19 16 14 11 7 6 5 4 6 9
Wind_Direction_850mb
196 212 215 213 216 235 267 216 242 190 137 218 243 248 256 252 248 254 257 250 245 241 238 238 241 237 232 228 227 224 226 222 220 220 221 223 225 227 232 232 233 235 239 243
179 229 233 232 213 221 224 213 231 269 122 233 263 256 264 257 254 244 247 248 254 251 247 243 241 239 236 234 232 229 227 227 224 225 227 229 230 229 234 236 239 242 244 246
216 173 216 206 207 216 229 231 221 296 293 256 296 266 244 251 245 245 244 244 245 246 249 245 242 240 239 236 236 234 231 230 229 228 230 230 233 237 237 238 238 239 241 245
229 201 174 212 225 210 226 214 216 188 308 255 314 278 244 265 273 248 244 239 245 250 253 250 249 246 243 241 238 236 234 234 233 229 232 235 236 239 239 238 235 231 232 241
192 181 187 206 215 207 237 171 204 225 246 282 238 262 233 298 267 260 271 241 270 263 258 257 254 249 246 238 235 234 234 233 233 232 233 237 237 239 241 239 234 230 225 232
227 193 208 220 185 197 150 135 104 121 216 251 242 224 230 228 244 292 301 353 348 294 246 248 240 239 239 239 235 232 231 231 231 233 232 234 238 235 238 241 240 238 233 232
216 216 167 176 190 185 183 171 156 194 199 243 60 214 250 214 302 294 306 14 40 54 194 227 221 229 232 229 224 221 220 223 223 222 222 226 230 232 241 244 246 243 238 239
209 207 208 180 204 179 199 192 189 203 208 224 148 229 176 324 63 55 69 78 68 69 82 100 125 150 177 189 193 201 205 208 210 213 214 218 221 228 233 237 241 240 239 241
214 224 190 187 184 174 193 222 227 108 61 210 194 243 238 147 107 99 90 82 67 68 81 92 103 111 119 132 149 166 180 187 189 197 203 207 209 215 224 230 230 232 233 236
273 213 196 203 211 209 201 186 199 217 204 230 201 237 214 184 162 134 109 99 90 85 86 96 103 106 109 112 117 129 138 150 158 168 178 187 190 195 204 209 211 211 214 221
171 237 182 181 205 205 204 198 225 220 224 240 238 202 114 169 162 147 135 120 111 98 94 97 103 107 110 113 117 119 123 126 130 134 140 148 154 159 167 179 191 204 217 228
201 179 256 214 80 258 227 211 198 207 202 233 346 183 133 138 134 140 140 134 122 113 110 110 110 111 114 114 115 116 118 122 124 127 132 142 148 152 160 170 180 194 212 226
162 198 245 261 221 176 206 222 208 229 337 211 211 181 157 144 141 146 145 139 127 121 123 121 121 117 115 115 116 118 120 122 124 127 132 138 142 144 154 164 176 190 207 222
143 199 232 243 283 60 219 217 211 232 234 214 217 209 184 180 174 169 154 147 142 138 137 131 126 124 122 121 120 120 119 119 120 125 129 132 133 136 141 150 172 204 229 245
25 316 201 175 88 0 263 326 228 214 226 242 232 219 190 185 182 179 164 158 154 151 149 145 139 131 126 124 121 119 120 120 118 121 123 125 121 123 129 141 210 267 279 280
146 188 201 259 154 38 278 263 274 273 69 234 175 178 319 148 141 165 180 181 186 182 176 168 160 151 143 136 131 127 123 120 116 117 111 100 99 90 45 275 271 272 274 278
161 167 205 172 347 323 269 220 228 232 188 164 201 214 169 188 201 190 197 206 203 196 193 186 180 174 166 159 155 153 151 154 162 182 198 204 236 261 269 270 271 273 273 274
135 104 25 73 126 235 185 177 223 239 251 218 202 155 194 198 191 194 202 209 203 201 199 198 191 183 180 182 185 188 191 198 211 217 220 228 245 261 273 280 282 281 280 280
7 134 116 185 215 314 259 191 179 194 252 218 212 193 163 157 161 193 192 194 194 190 189 189 184 180 178 178 181 186 193 204 227 246 260 266 265 262 258 254 256 259 262 265
158 19 297 158 211 221 271 22 174 168 265 164 185 185 168 156 204 180 190 189 187 185 185 186 183 183 184 184 184 190 205 225 248 265 271 273 273 270 268 265 261 256 250 247
167 205 222 214 238 276 251 251 233 177 248 156 179 175 167 190 209 170 181 185 187 186 188 187 188 191 193 193 197 207 225 240 249 247 251 255 258 261 263 264 262 259 257 255
180 178 194 182 223 255 162 123 202 277 118 149 164 177 184 185 170 162 173 183 188 193 195 195 199 200 202 204 208 213 220 232 236 242 246 246 241 236 231 231 233 231 240 263
224 205 187 206 215 291 222 237 216 185 197 187 179 169 180 183 185 183 186 191 195 201 204 206 208 211 216 222 227 233 247 250 253 249 243 235 227 218 211 207 205 204 208 217
227 173 232 230 213 235 249 250 248 236 209 205 194 196 200 210 214 210 208 207 209 211 213 219 224 227 230 234 239 242 247 249 244 235 222 212 204 198 198 204 221 239 254 260
200 162 201 251 273 274 267 255 238 233 221 219 218 216 214 221 225 228 228 226 226 225 224 226 230 233 232 232 232 231 230 225 218 210 204 199 199 204 214 228 249 265 275 284
185 206 205 245 212 226 251 247 239 239 243 235 233 240 238 232 231 232 232 232 232 232 231 231 232 232 231 231 229 223 215 206 201 201 202 204 209 215 224 247 267 281 315 326